Wind_Speed
6 7 7 7 9 10 6 6 7 9 8 7 8 7 7 7 7 7 8 8 7 7 6 6 5 5 5 4 4 4 3 3 2 2 2 2 3 3 2 2 1 1 2 2 2 2 2 3 3
5 5 5 7 10 7 5 6 8 10 9 8 9 8 8 8 8 7 8 8 7 7 6 5 5 5 5 5 4 4 3 3 3 2 2 2 2 3 3 2 2 2 2 1 0 1 2 3 3
4 4 6 8 8 4 6 9 9 10 9 9 9 9 9 9 8 8 8 8 7 7 7 6 5 5 5 5 5 4 3 3 3 2 2 2 2 2 3 3 3 3 2 1 1 2 2 3 4
4 5 6 7 4 3 6 9 10 9 8 9 9 10 10 9 9 9 9 9 8 7 6 5 5 5 4 4 4 4 3 3 3 2 2 2 2 2 2 3 3 3 2 2 2 2 2 2 4
4 4 5 3 5 4 7 9 10 9 8 9 9 9 10 10 9 9 9 9 9 7 6 5 5 4 4 4 4 4 3 3 3 3 3 2 2 2 2 2 2 2 2 2 2 2 2 3 3
3 2 2 3 5 6 9 10 9 8 8 9 10 11 11 11 11 10 9 10 9 7 6 6 5 4 4 4 4 4 4 4 3 3 3 3 3 3 3 2 1 2 2 2 2 2 2 3 3
2 1 2 3 6 9 10 11 10 9 8 9 10 11 11 10 11 11 10 9 9 7 6 6 5 5 5 5 5 5 5 4 4 3 4 3 3 3 3 3 3 3 2 3 3 3 3 3 3
4 3 3 5 6 11 11 12 11 11 10 10 10 10 11 10 11 11 10 9 8 8 7 6 5 5 5 5 5 5 5 5 4 4 3 3 2 3 3 3 3 3 4 3 3 3 4 4 4
5 4 6 5 6 12 12 12 12 11 11 10 10 10 11 10 10 10 9 8 8 7 7 6 6 5 6 5 5 5 5 5 4 4 3 3 3 3 3 3 3 4 4 4 4 4 4 4 5
6 5 6 6 8 12 13 13 12 12 12 11 10 9 10 10 10 10 9 9 8 6 7 7 6 6 6 6 6 5 5 5 4 4 4 3 3 3 3 3 4 4 4 4 5 5 5 5 6
9 8 8 9 12 13 14 13 12 12 13 12 11 11 12 11 10 9 9 9 9 8 7 7 7 7 7 6 6 6 6 6 5 5 5 4 4 3 3 4 4 4 4 4 5 6 6 6 6
12 11 13 13 14 13 14 13 12 12 13 12 13 11 12 11 10 9 9 9 8 8 7 7 7 7 7 6 6 6 6 6 6 5 6 6 5 4 5 5 5 5 5 5 5 6 6 7 6
14 14 16 15 14 14 14 13 12 12 13 13 14 12 13 12 10 10 9 8 8 8 8 7 7 8 8 7 7 7 7 7 7 6 6 7 6 5 5 6 6 6 6 6 6 5 6 7 6
15 16 16 16 15 15 14 13 13 13 13 13 14 13 13 13 11 10 10 9 9 9 8 7 8 9 8 8 8 8 8 7 7 7 7 7 7 7 7 7 6 6 6 6 6 6 6 7 8
16 16 16 16 15 15 15 15 14 13 14 15 15 14 13 13 12 11 10 10 10 9 9 8 9 9 9 9 9 9 9 9 8 8 8 9 8 8 9 8 7 7 7 7 7 8 8 8 8
16 17 16 14 14 15 16 16 14 14 15 15 15 15 14 13 12 12 11 10 10 10 9 9 9 10 10 10 10 10 10 10 9 8 8 9 9 9 9 9 9 8 8 9 9 9 9 9 9
15 15 14 13 15 17 17 15 12 15 16 15 16 15 14 14 13 13 12 11 11 10 10 10 9 10 10 10 11 11 11 10 9 9 9 9 10 9 9 9 8 8 8 9 10 10 10 10 9
14 13 13 14 16 17 16 15 12 16 16 16 16 16 15 14 14 15 13 12 11 11 11 11 10 10 10 10 11 11 11 10 10 10 10 10 10 10 10 9 9 8 9 9 10 10 10 10 10
14 16 16 15 15 18 17 16 14 16 17 15 15 17 17 16 16 15 14 13 12 11 11 11 11 11 11 11 11 11 11 11 10 10 10 11 11 11 10 10 9 9 10 10 9 10 10 9 9
17 17 16 15 15 18 19 18 16 15 17 16 15 17 18 18 16 16 15 15 14 12 12 12 11 10 11 11 12 12 11 11 12 12 12 12 12 12 11 11 10 11 11 10 10 10 10 10 10
18 17 17 17 18 19 19 19 17 18 19 19 18 17 18 19 18 17 16 15 14 14 14 14 13 13 12 12 13 13 12 13 13 13 13 12 12 12 13 13 12 12 11 11 11 11 11 10 10
19 18 17 18 18 19 19 19 19 19 20 20 20 18 19 20 20 18 17 17 16 16 15 15 15 14 14 14 14 14 14 14 14 13 13 13 14 14 13 13 13 12 12 12 12 11 11 11 11
20 18 19 20 20 20 19 19 20 20 21 21 20 18 20 21 22 20 19 18 18 17 17 17 17 17 16 16 15 15 15 15 15 14 14 15 15 15 15 14 14 13 13 13 12 12 12 12 11
20 19 20 19 20 22 20 20 21 22 23 22 22 20 19 21 22 21 20 20 20 19 18 18 18 18 18 17 17 16 16 16 16 16 16 16 16 16 16 15 15 15 14 13 13 13 13 12 12
18 19 18 18 21 21 19 22 24 24 24 23 23 22 20 21 22 22 22 21 21 20 19 19 19 19 19 19 19 18 18 18 18 17 17 17 17 17 17 17 17 16 15 15 15 15 14 14 14
19 19 19 18 19 19 19 21 23 25 24 24 23 23 22 22 22 22 22 20 21 21 21 21 20 20 20 20 20 20 20 20 19 19 19 19 18 18 18 19 18 17 17 16 16 16 16 16 16
20 19 19 20 20 20 19 20 22 23 25 26 26 25 24 23 22 23 23 21 21 21 21 21 20 21 21 21 21 21 21 21 21 21 21 21 19 19 19 20 19 18 18 18 17 17 18 18 18
20 19 19 21 22 22 20 20 23 22 23 24 24 24 25 23 23 24 23 22 21 20 20 21 21 21 22 22 22 22 22 22 22 22 23 22 21 21 22 21 20 19 19 19 19 19 19 19 19
20 21 21 21 23 23 23 22 21 23 24 25 26 26 26 25 25 24 24 23 21 21 21 22 22 23 23 23 23 23 23 23 23 24 23 23 22 22 22 22 22 21 20 20 21 21 20 21 21
22 23 24 24 24 24 24 24 23 24 25 24 25 26 27 26 26 26 25 25 24 23 23 23 23 24 24 24 24 24 24 24 24 24 24 24 24 24 23 23 23 22 22 22 22 22 22 22 22
Wind_Direction
63 62 62 63 53 50 22 353 332 331 340 340 339 336 337 334 337 335 337 338 343 344 338 334 332 333 329 322 317 311 302 296 273 263 267 243 238 236 240 263 281 253 273 285 272 209 210 233 232
70 67 68 60 53 35 353 328 331 333 340 342 341 341 340 336 336 335 338 338 343 347 345 341 336 337 333 323 320 314 301 295 278 268 246 235 242 241 239 247 258 258 273 300 328 212 228 233 234
85 83 66 47 44 14 330 326 326 331 339 341 339 341 339 338 335 336 337 338 343 347 347 342 337 338 334 328 324 319 303 297 294 278 263 236 234 246 248 245 256 264 258 253 278 270 252 238 231
100 99 71 38 12 342 301 312 319 327 333 333 338 341 336 336 335 337 336 336 336 339 345 344 341 342 336 329 324 326 316 312 299 303 292 257 243 258 249 246 249 241 249 253 262 253 266 257 235
126 101 63 348 321 309 297 308 316 318 324 328 334 338 334 334 337 338 337 336 335 336 343 344 342 342 341 338 333 329 321 314 310 308 300 289 274 274 257 253 263 249 249 257 251 250 270 269 244
167 113 4 304 303 296 296 306 311 319 318 323 330 331 331 332 334 334 339 340 340 341 344 347 346 346 348 344 340 339 332 319 317 317 308 295 284 281 275 268 266 253 242 244 241 244 260 262 259
206 146 284 283 280 284 289 297 305 309 312 317 321 324 324 328 332 334 339 340 342 346 344 346 345 347 351 351 348 347 344 333 323 311 301 295 286 279 273 268 260 272 266 257 248 264 263 257 257
208 205 242 272 287 285 289 295 300 305 309 308 313 319 321 327 329 334 336 339 341 345 343 341 344 343 348 352 348 347 344 339 333 324 313 308 299 276 265 270 261 271 280 274 265 274 272 263 254
214 231 242 243 261 278 284 290 297 304 304 304 307 314 314 321 324 327 330 334 335 336 339 337 339 336 335 344 348 347 341 337 335 328 325 326 315 288 271 279 265 271 284 280 275 281 274 275 271
225 246 254 249 254 268 276 283 294 300 300 299 305 313 313 318 320 321 324 326 327 328 332 334 335 337 335 339 343 342 338 338 329 320 313 319 315 296 279 283 274 274 276 283 280 280 283 286 284
235 245 256 258 259 265 272 280 291 290 290 294 299 309 311 316 315 314 317 321 325 326 325 328 332 333 332 331 334 335 338 343 337 329 320 306 308 298 291 304 292 282 277 276 276 272 277 287 286
245 244 249 254 263 269 274 277 283 286 288 287 289 296 304 313 313 310 311 318 322 320 317 320 323 324 323 325 327 329 333 335 333 322 311 310 306 298 296 299 291 284 286 286 279 277 285 288 293
250 253 259 260 267 271 276 276 277 281 285 290 293 294 300 305 307 304 302 308 314 312 310 313 314 315 316 317 317 320 325 329 329 324 320 319 319 307 304 298 295 290 290 287 276 284 288 289 290
246 249 258 262 265 268 272 272 273 281 280 281 285 288 291 296 300 301 297 299 306 310 312 314 310 309 308 311 312 311 313 319 322 322 320 318 316 311 313 305 301 292 286 276 279 293 290 287 288
247 253 257 261 264 268 270 268 268 272 275 277 282 285 286 289 293 295 291 287 295 303 308 312 308 307 306 306 307 307 307 308 312 316 319 314 309 308 311 305 301 295 295 295 298 289 288 287 287
247 252 255 264 269 269 271 273 274 274 273 276 280 280 281 285 286 288 286 282 288 296 300 305 306 304 304 303 300 301 303 307 310 311 313 314 309 305 305 305 302 296 294 301 303 296 289 286 288
248 253 257 265 268 271 271 271 274 275 273 272 273 277 279 280 284 283 281 279 282 289 294 296 298 299 298 300 300 301 303 304 306 306 307 309 310 310 308 307 303 298 299 300 298 296 297 294 294
250 255 256 256 264 269 267 267 268 275 274 271 273 277 276 274 278 278 279 279 280 285 288 288 292 294 295 297 300 302 305 304 303 302 301 303 308 310 312 312 305 297 297 298 295 294 297 297 293
242 242 243 251 257 263 265 265 263 269 272 270 274 278 277 271 271 273 275 276 276 279 283 286 288 292 294 295 297 300 301 301 300 298 299 299 300 303 308 310 308 303 303 304 301 297 298 296 296
238 241 244 250 253 260 263 263 262 263 265 268 270 273 270 271 268 271 275 277 274 275 279 282 286 290 293 294 295 296 297 297 297 299 299 297 296 298 300 302 305 303 303 302 300 300 297 296 297
242 242 243 246 250 257 264 268 266 260 261 269 268 268 269 271 271 270 272 273 273 275 277 276 277 283 289 293 293 291 293 295 296 298 301 295 294 294 296 298 301 302 301 299 298 299 297 294 294
245 247 248 248 251 256 261 266 266 263 263 270 271 268 265 265 268 267 266 270 272 273 274 273 273 277 284 288 290 290 290 293 295 297 299 296 295 296 293 296 298 300 300 297 295 295 296 294 294
243 242 243 246 250 253 255 261 263 263 260 266 269 264 262 263 266 266 264 266 268 269 272 274 274 275 280 285 288 288 289 289 292 295 298 296 293 291 290 291 293 296 298 296 293 293 293 292 293
242 245 248 251 252 254 256 256 258 258 256 255 262 266 264 264 266 266 265 264 265 265 268 272 272 274 278 281 284 286 287 287 289 293 294 296 292 289 288 289 291 292 293 292 290 290 289 289 290
246 243 247 250 251 254 256 256 256 257 255 253 258 265 264 267 268 266 266 263 263 265 267 269 270 272 274 277 280 282 284 285 286 290 293 295 294 289 286 287 288 288 287 288 288 287 287 286 286
244 243 244 247 255 259 260 253 253 256 260 259 259 262 263 265 266 267 266 266 266 266 268 269 268 269 272 275 278 280 282 284 285 286 289 291 291 289 286 286 286 284 283 284 285 285 284 286 286
243 243 243 248 253 259 258 256 251 255 260 264 263 263 266 260 262 265 265 266 267 266 266 268 267 268 270 272 276 279 281 282 283 284 285 286 287 286 285 286 284 283 281 281 282 283 283 283 283
249 246 240 238 246 253 258 261 257 255 259 264 265 266 266 264 264 266 264 264 266 269 268 267 266 267 268 269 272 276 278 279 280 281 282 282 285 286 285 283 283 281 280 280 280 282 283 282 280
249 246 242 242 241 248 256 258 259 259 259 260 263 266 261 259 262 264 263 266 265 267 268 268 268 267 268 269 271 273 276 277 278 279 280 280 282 284 286 284 282 281 280 280 280 281 281 281 280
247 247 240 243 243 244 253 260 257 256 258 260 262 262 260 259 262 263 263 265 266 267 267 266 267 267 268 270 272 273 276 277 278 280 279 279 281 282 284 284 281 280 279 279 280 282 282 281 280
Height
5904 5904 5904 5904 5903 5904 5904 5904 5903 5901 5899 5898 5896 5894 5893 5892 5891 5892 5888 5885 5885 5884 5882 5881 5881 5880 5879 5879 5878 5878 5877 5877 5877 5877 5876 5876 5876 5876 5876 5876 5876 5876 5877 5877 5877 5877 5878 5878 5878
5904 5905 5905 5904 5904 5905 5906 5904 5903 5901 5899 5898 5896 5894 5893 5892 5890 5889 5887 5886 5885 5883 5882 5882 5881 5880 5880 5879 5878 5878 5878 5877 5877 5877 5877 5877 5876 5876 5876 5876 5877 5877 5877 5877 5877 5877 5878 5878 5879
5904 5905 5905 5904 5905 5906 5906 5904 5903 5901 5899 5898 5896 5895 5894 5892 5891 5889 5887 5886 5885 5884 5882 5881 5881 5880 5880 5879 5879 5878 5878 5878 5877 5877 5877 5877 5877 5876 5876 5876 5877 5877 5877 5877 5877 5877 5878 5878 5878
5905 5905 5905 5906 5907 5907 5907 5905 5903 5901 5900 5898 5897 5895 5893 5892 5890 5889 5887 5886 5885 5884 5883 5882 5881 5880 5880 5879 5879 5879 5878 5878 5877 5877 5877 5877 5877 5876 5876 5876 5876 5877 5877 5877 5877 5877 5878 5878 5878
5904 5905 5905 5906 5906 5907 5906 5905 5903 5901 5900 5898 5897 5896 5893 5892 5889 5888 5887 5886 5884 5884 5883 5882 5881 5881 5880 5880 5879 5879 5878 5878 5877 5877 5877 5877 5877 5876 5876 5876 5876 5876 5876 5877 5877 5877 5877 5877 5878
5904 5904 5906 5907 5907 5906 5906 5904 5903 5902 5900 5898 5897 5896 5893 5892 5890 5888 5886 5886 5885 5884 5883 5882 5881 5881 5881 5880 5880 5879 5879 5878 5878 5877 5877 5877 5877 5876 5876 5876 5876 5876 5876 5876 5877 5877 5877 5878 5878
5904 5904 5905 5907 5907 5906 5906 5904 5903 5901 5900 5899 5897 5895 5893 5892 5890 5888 5887 5886 5885 5884 5883 5882 5882 5882 5881 5880 5880 5879 5879 5878 5878 5877 5877 5877 5876 5876 5876 5876 5876 5876 5876 5876 5876 5877 5877 5877 5878
5902 5904 5905 5906 5907 5906 5905 5903 5902 5900 5899 5898 5897 5895 5893 5892 5891 5889 5887 5886 5885 5884 5884 5883 5882 5882 5881 5881 5880 5880 5879 5878 5878 5877 5877 5877 5876 5876 5876 5876 5876 5876 5876 5876 5876 5876 5877 5877 5877
5901 5904 5904 5905 5907 5906 5904 5902 5901 5899 5898 5897 5896 5894 5893 5892 5891 5889 5888 5886 5885 5884 5884 5883 5883 5882 5882 5881 5880 5880 5879 5878 5877 5877 5877 5877 5876 5876 5876 5876 5876 5876 5876 5876 5876 5876 5876 5876 5877
5900 5901 5903 5903 5904 5904 5902 5901 5900 5898 5897 5895 5894 5894 5892 5891 5890 5889 5887 5886 5884 5883 5883 5883 5883 5882 5882 5881 5880 5880 5879 5878 5877 5877 5877 5877 5876 5876 5876 5876 5876 5876 5876 5875 5875 5875 5875 5876 5876
5898 5900 5901 5901 5901 5901 5900 5899 5898 5897 5895 5894 5894 5893 5892 5891 5890 5888 5887 5886 5884 5884 5883 5883 5883 5882 5882 5881 5880 5880 5879 5878 5877 5877 5877 5876 5876 5876 5876 5876 5875 5875 5875 5875 5875 5875 5875 5875 5875
5896 5898 5899 5899 5898 5898 5898 5898 5897 5896 5895 5893 5892 5892 5891 5890 5888 5888 5887 5886 5885 5884 5883 5883 5882 5882 5882 5881 5881 5880 5879 5878 5878 5877 5877 5876 5876 5875 5875 5876 5875 5875 5875 5875 5874 5874 5874 5874 5875
5893 5895 5895 5895 5895 5895 5895 5895 5895 5894 5893 5892 5891 5890 5890 5889 5888 5887 5886 5885 5884 5883 5883 5883 5882 5882 5881 5881 5880 5880 5879 5878 5878 5877 5876 5876 5876 5875 5875 5875 5874 5874 5874 5874 5873 5874 5874 5874 5873
5890 5891 5892 5892 5892 5893 5893 5893 5893 5892 5891 5890 5889 5889 5888 5887 5886 5886 5885 5884 5883 5883 5882 5881 5882 5881 5881 5880 5880 5879 5879 5878 5878 5877 5876 5875 5875 5875 5874 5874 5874 5874 5873 5873 5872 5872 5873 5872 5872
5886 5888 5889 5889 5890 5890 5890 5890 5890 5889 5888 5888 5886 5887 5886 5885 5884 5884 5884 5883 5882 5882 5881 5881 5881 5880 5880 5880 5879 5879 5878 5877 5877 5876 5876 5875 5874 5874 5874 5873 5873 5873 5872 5872 5870 5871 5871 5871 5871
5882 5884 5885 5887 5887 5887 5889 5888 5887 5887 5886 5885 5884 5884 5883 5883 5883 5882 5882 5882 5881 5881 5881 5880 5880 5879 5879 5879 5878 5878 5877 5877 5876 5875 5875 5874 5873 5873 5873 5872 5871 5871 5871 5870 5870 5870 5870 5869 5869
5878 5880 5882 5885 5885 5885 5885 5885 5885 5885 5883 5883 5882 5881 5881 5881 5881 5880 5880 5880 5880 5879 5879 5879 5878 5878 5878 5878 5877 5877 5876 5875 5875 5874 5874 5873 5873 5872 5872 5871 5870 5870 5869 5869 5869 5869 5868 5868 5868
5877 5879 5881 5883 5883 5883 5882 5882 5882 5882 5881 5880 5880 5879 5878 5879 5879 5878 5878 5878 5878 5878 5877 5877 5876 5876 5876 5876 5876 5875 5875 5874 5874 5873 5873 5872 5872 5871 5870 5870 5869 5869 5868 5868 5868 5867 5867 5866 5866
5874 5876 5878 5880 5880 5880 5879 5879 5879 5879 5878 5877 5877 5877 5876 5875 5876 5875 5875 5875 5876 5876 5875 5875 5875 5875 5875 5875 5874 5874 5873 5873 5873 5872 5872 5871 5871 5870 5869 5869 5868 5867 5867 5867 5866 5866 5865 5864 5864
5869 5872 5874 5876 5877 5877 5876 5876 5876 5876 5875 5875 5875 5874 5874 5872 5872 5872 5872 5873 5873 5873 5873 5873 5873 5873 5873 5873 5873 5872 5872 5872 5871 5871 5870 5870 5869 5869 5868 5867 5867 5866 5865 5865 5864 5864 5863 5863 5862
5865 5867 5870 5872 5873 5872 5872 5872 5872 5872 5872 5872 5871 5871 5871 5869 5869 5869 5869 5870 5870 5870 5871 5871 5871 5871 5871 5871 5871 5870 5870 5870 5870 5869 5868 5868 5867 5867 5866 5866 5865 5864 5864 5863 5862 5862 5861 5861 5860
5860 5863 5865 5866 5867 5868 5869 5869 5869 5868 5867 5868 5868 5867 5867 5866 5865 5866 5866 5867 5867 5868 5868 5868 5868 5869 5869 5869 5868 5868 5868 5868 5868 5867 5866 5866 5865 5865 5864 5864 5863 5862 5861 5861 5860 5859 5859 5858 5858
5856 5859 5860 5861 5862 5863 5864 5865 5865 5864 5863 5863 5863 5863 5862 5862 5861 5862 5863 5863 5864 5864 5865 5865 5866 5866 5866 5866 5866 5866 5866 5865 5865 5864 5864 5863 5863 5862 5862 5862 5861 5860 5859 5859 5858 5857 5856 5856 5856
5850 5853 5854 5855 5857 5857 5859 5860 5860 5859 5858 5857 5858 5858 5858 5858 5858 5858 5859 5860 5860 5861 5861 5862 5862 5863 5863 5863 5863 5863 5863 5862 5862 5862 5861 5861 5860 5860 5859 5859 5858 5858 5857 5856 5855 5855 5854 5853 5853
5845 5848 5850 5851 5851 5852 5854 5854 5854 5853 5852 5852 5852 5854 5854 5854 5854 5855 5855 5855 5856 5857 5857 5858 5859 5859 5860 5860 5860 5860 5860 5859 5859 5859 5858 5858 5857 5856 5856 5856 5855 5855 5854 5853 5853 5852 5851 5850 5850
5840 5843 5845 5847 5848 5848 5849 5849 5848 5847 5848 5847 5848 5849 5850 5851 5851 5851 5851 5851 5852 5852 5853 5854 5855 5855 5856 5856 5856 5856 5856 5855 5855 5855 5854 5854 5854 5853 5853 5852 5852 5851 5851 5850 5849 5849 5848 5847 5846
5835 5837 5841 5843 5842 5843 5844 5843 5842 5842 5843 5843 5843 5844 5845 5845 5845 5846 5845 5846 5847 5848 5849 5849 5850 5851 5852 5852 5852 5852 5852 5851 5851 5851 5850 5850 5849 5849 5849 5848 5848 5847 5847 5846 5846 5845 5844 5844 5843
5830 5832 5835 5836 5837 5838 5839 5839 5836 5835 5837 5838 5838 5839 5839 5839 5840 5841 5841 5841 5843 5843 5843 5844 5845 5846 5846 5847 5847 5847 5847 5847 5847 5846 5846 5846 5846 5845 5844 5844 5843 5843 5842 5842 5841 5841 5840 5839 5839
5825 5827 5828 5829 5831 5832 5833 5835 5832 5831 5831 5832 5833 5834 5834 5834 5835 5836 5836 5836 5837 5838 5839 5839 5840 5841 5841 5841 5842 5842 5842 5842 5842 5841 5841 5841 5841 5841 5840 5839 5838 5838 5837 5837 5836 5836 5835 5835 5834
5819 5820 5822 5823 5824 5825 5826 5829 5825 5825 5825 5826 5827 5827 5828 5828 5829 5830 5831 5831 5831 5832 5834 5834 5834 5835 5836 5836 5836 5837 5837 5837 5836 5836 5836 5836 5835 5835 5835 5834 5833 5832 5832 5831 5831 5831 5830 5829 5829